Погода в Чинееве

Россия / Курганская область     55°28′28″N   64°38′49″E
В апреле 2022 года жителям России запретили посещать сайт meteo.paraplan.net по решению Генеральной прокуратуры. Аудитория сайта уменьшилась в 10 раз. Владельцы сайта не видят смысла в поддержке погодного сервера в таких условиях. Сайт будет закрыт в октябре.
темп.,
°C
ветер,
м/с
пор.,
м/с
влажн.,
%
обл.,
%
осадки,
мм/ч
давл.,
гПа
погр.,
м
4 октября, вт
вт423:00+7ююз4104884 0.0 1031245
02:00+6ююз4114991 0.0 1031229
05:00+6юз41047100 0.0 1032240
08:00+7юз41048100 0.0 1032243
11:00+11зюз584543 0.0 1033337
14:00+14зюз564344 0.0 1033540
17:00+13зюз38509 0.0 1033271
20:00+9зюз38555 0.0 1034119
5 октября, ср
ср523:00+8зюз365381 0.0 1035100
02:00+7юз37485 0.0 103597
05:00+6юз37455 0.0 1035112
08:00+6юз394675 0.0 1035184
11:00+11юз5935100 0.0 1035438
14:00+13юз5931100 0.0 1033669
17:00+11юз3840100 0.0 1032261
20:00+7юз3746100 0.0 1033118
6 октября, чт
чт623:00+8юз3843100 0.0 1032142
02:00+7юз3543100 0.0 103177
05:00+7ююз3542100 0.0 103095
08:00+7ююз3945100 0.0 1029218
11:00+12ю5934100 0.0 1027384
14:00+13ю41035100 0.0 1026559
17:00+11ю31140100 0.0 1024300
20:00+9ю31238100 0.0 1023228
7 октября, пт
пт723:00+9ю41235100 0.0 1021247
02:00+9юз31036100 0.0 1021251
05:00+9ююз3642100 0.0 1019140
08:00+9юз51363100 0.0 1018616
11:00+11юз51074100 0.0 1017983
14:00+10ююз5971100 0.0 1016709
17:00+9ююз497897 0.1 1015477
20:00+8ю3884100 0.0 1014277
8 октября, сб
сб823:00+8юз3885100 0.2 1012333
02:00+8зсз5988100 0.9 1012613
05:00+6з378999 1.0 1011337
08:00+5зюз4108298 0.0 1011449
11:00+6зюз5987100 0.2 1011969
14:00+7з71186100 0.4 10111077
17:00+9з6117596 0.4 10111023
20:00+7зсз6138186 0.1 1013858